Flag for U.S.A. Weather past 2 weeks in Fort Lauderdale, Florida, U.S.A.

76 °F

Passing clouds.

Feels Like: 75 °F
Forecast: 75 / 87 °F
Wind: 6 mph from North

Location: Fort Lauderdale / Hollywood International Airport

Current Time: Oct 9, 2015 at 7:33:13 AM

Latest Report: Oct 9, 2015 at 6:53 AM

Visibility: 10 mi

Pressure: 29.98 "Hg

Humidity: 97%

Dew point: 75 °F

Location of Fort LauderdaleLocation

Historic Weather in Fort Lauderdale — Graph


Fort Lauderdale temperature yesterday

Maximum temperature yesterday: 86 °F (at 11:53 AM)
Minimum temperature yesterday: 75 °F (at 1:59 AM)
Average temperature yesterday: 80 °F

Past Weeks' High & Low Weather Summary

High91 °F (Sep 30, 4:53 PM)97% (Sep 29, 9:53 PM)30.03 "Hg (Sep 29, 9:53 PM)
Low71 °F (Oct 4, 5:53 AM)45% (Oct 3, 2:53 PM)29.50 "Hg (Oct 2, 3:53 PM)
Average81 °F78%29.81 "Hg
* Reported Sep 24 5:53 AM — Oct 9 5:53 AM, Fort Lauderdale, Weather by CustomWeather, © 2015

Note: Actual official high and low records may vary slightly from our data, if they occured in-between our weather recording intervals... More about our weather records


Fort Lauderdale weather history for previous 24 hours

Time TempWeatherWind HumidityBarometerVisibility
5:53 AM
Fri, Oct 9
77 °FPassing clouds.3 mph94%29.97 "Hg10 mi
4:53 AM77 °FPartly cloudy.No wind94%29.97 "Hg10 mi
3:53 AM77 °FPartly cloudy.No wind94%29.98 "Hg10 mi
2:53 AM78 °FPartly cloudy.5 mph90%29.98 "Hg10 mi
1:53 AM78 °FPassing clouds.No wind90%29.99 "Hg10 mi
12:53 AM78 °FPassing clouds.3 mph87%30.00 "Hg10 mi
11:53 PM
Thu, Oct 8
77 °FPartly cloudy.3 mph90%30.02 "Hg10 mi
10:53 PM78 °FPartly cloudy.6 mph87%30.03 "Hg10 mi
9:53 PM82 °FPartly cloudy.3 mph74%30.02 "Hg10 mi
8:53 PM82 °FPartly cloudy.7 mph77%30.00 "Hg10 mi
7:53 PM82 °FBroken clouds.6 mph77%29.98 "Hg10 mi
6:53 PM82 °FBroken clouds.8 mph77%29.96 "Hg10 mi
5:53 PM83 °FScattered clouds.10 mph74%29.95 "Hg10 mi
4:53 PM83 °FScattered clouds.10 mph74%29.95 "Hg10 mi
3:53 PM84 °FScattered clouds.10 mph72%29.94 "Hg10 mi
2:53 PM85 °FPartly sunny.9 mph70%29.95 "Hg10 mi
1:53 PM86 °FPassing clouds.9 mph70%29.97 "Hg10 mi
12:53 PM86 °FScattered clouds.12 mph70%29.99 "Hg10 mi
11:53 AM86 °FPassing clouds.8 mph70%30.01 "Hg10 mi
10:53 AM82 °FScattered clouds.No wind74%30.01 "Hg10 mi
9:53 AM83 °FPassing clouds.3 mph74%30.01 "Hg10 mi
8:53 AM79 °FScattered clouds.No wind84%30.00 "Hg10 mi
7:53 AM76 °FPartly cloudy.No wind91%29.98 "Hg10 mi
Weather by CustomWeather, © 2015

See weather overviewHow to use our weather pages